Location: Unspecified
(35.7250°N, 0.0000°E)
Time: 12:46:45
(UTC+00:00)

Explorer 7 - Pass Details

Date: 16 August 2020
Orbit: 485 x 679 km, 50.3° (Epoch: 21 September)

Event Time Altitude Azimuth Distance (km) Brightness Sun altitude
Rises 19:08:19 0° 291° (WNW) 2,717 13.6 -4.8°
Reaches altitude 10° 19:11:58 10° 323° (NW) 1,775 10.4 -5.5°
Maximum altitude 19:13:30 12° 346° (NNW) 1,641 9.8 -5.7°
Drops below altitude 10° 19:15:01 10° 9° (N) 1,739 9.5 -6.0°
Sets 19:18:30 0° 42° (NE) 2,589 10.0 -6.7°
